| time (UTC) | temp F | wind direction | speed knots | gust knots | rain 1hr in | rain 24hr in | rain mn in | humidity % | barometer mb |
| 20260505041607 | 73 | 265 | 0.0 | 1.7 | 0.00 | 0.01 | 0.01 | 82 | 1015.5 |
| 20260505041105 | 73 | 242 | 0.0 | 0.9 | 0.00 | 0.01 | 0.01 | 81 | 1015.5 |
| 20260505040602 | 73 | 197 | 0.9 | 0.9 | 0.00 | 0.01 | 0.01 | 81 | 1015.5 |
| 20260505040059 | 73 | 225 | 0.0 | 1.7 | 0.00 | 0.01 | 0.01 | 80 | 1015.9 |
| 20260505035555 | 73 | 211 | 1.7 | 1.7 | 0.00 | 0.01 | 0.01 | 80 | 1015.6 |
| 20260505035051 | 73 | 223 | 0.9 | 0.9 | 0.00 | 0.01 | 0.01 | 80 | 1015.7 |
| 20260505034548 | 73 | 228 | 1.7 | 2.6 | 0.00 | 0.01 | 0.01 | 80 | 1015.8 |
| 20260505034045 | 73 | 234 | 0.9 | 1.7 | 0.00 | 0.01 | 0.01 | 80 | 1015.8 |
| 20260505033542 | 73 | 254 | 0.9 | 1.7 | 0.00 | 0.01 | 0.01 | 80 | 1016.2 |
| 20260505033040 | 73 | 258 | 0.0 | 0.9 | 0.00 | 0.01 | 0.01 | 80 | 1016.2 |
| 20260505032538 | 73 | 206 | 0.9 | 1.7 | 0.00 | 0.01 | 0.01 | 80 | 1015.9 |
| 20260505032034 | 73 | 295 | 1.7 | 1.7 | 0.00 | 0.01 | 0.01 | 80 | 1016.1 |
| 20260505031531 | 73 | 232 | 0.9 | 1.7 | 0.00 | 0.01 | 0.01 | 80 | 1016.0 |
| 20260505031027 | 73 | 216 | 0.9 | 1.7 | 0.00 | 0.01 | 0.01 | 80 | 1016.0 |
| 20260505030525 | 73 | 278 | 0.0 | 0.9 | 0.00 | 0.01 | 0.01 | 80 | 1016.1 |
| 20260505030021 | 73 | 233 | 0.9 | 2.6 | 0.00 | 0.01 | 0.01 | 80 | 1015.8 |
| 20260505025517 | 74 | 223 | 0.9 | 0.9 | 0.00 | 0.01 | 0.01 | 80 | 1015.7 |
| 20260505025016 | 74 | 214 | 0.0 | 1.7 | 0.00 | 0.01 | 0.01 | 79 | 1016.0 |
| 20260505024512 | 74 | 255 | 0.9 | 1.7 | 0.00 | 0.01 | 0.01 | 79 | 1015.9 |
| 20260505024009 | 74 | 0 | 0.9 | 0.9 | 0.00 | 0.01 | 0.01 | 79 | 1015.8 |
| 20260505023506 | 74 | 224 | 0.9 | 4.3 | 0.00 | 0.01 | 0.01 | 79 | 1016.3 |
| 20260505023004 | 74 | 273 | 0.0 | 0.0 | 0.00 | 0.01 | 0.01 | 79 | 1016.1 |
| 20260505022502 | 74 | 220 | 0.0 | 0.9 | 0.00 | 0.01 | 0.01 | 79 | 1016.2 |
| 20260505021958 | 74 | 158 | 1.7 | 1.7 | 0.00 | 0.01 | 0.01 | 79 | 1016.0 |
| 20260505021455 | 74 | 244 | 0.9 | 1.7 | 0.00 | 0.01 | 0.01 | 78 | 1016.0 |
| 20260505020950 | 74 | 67 | 0.9 | 1.7 | 0.00 | 0.01 | 0.01 | 78 | 1015.9 |
| 20260505020446 | 74 | 224 | 0.9 | 0.9 | 0.00 | 0.01 | 0.01 | 78 | 1016.0 |
| 20260505015943 | 75 | 266 | 0.9 | 4.3 | 0.00 | 0.01 | 0.01 | 77 | 1015.8 |
| 20260505015440 | 75 | 76 | 0.0 | 1.7 | 0.00 | 0.01 | 0.01 | 77 | 1016.1 |
| 20260505014937 | 75 | 147 | 1.7 | 5.2 | 0.00 | 0.01 | 0.01 | 76 | 1015.8 |
| 20260505014434 | 75 | 280 | 0.0 | 1.7 | 0.00 | 0.01 | 0.01 | 76 | 1015.9 |
| 20260505013931 | 75 | 216 | 0.0 | 0.9 | 0.00 | 0.01 | 0.01 | 76 | 1015.9 |
| 20260505013428 | 75 | 169 | 0.9 | 1.7 | 0.00 | 0.01 | 0.01 | 76 | 1015.9 |
| 20260505012926 | 75 | 21 | 0.9 | 0.9 | 0.00 | 0.01 | 0.01 | 76 | 1015.8 |
| 20260505012424 | 75 | 223 | 0.0 | 0.9 | 0.00 | 0.01 | 0.01 | 76 | 1015.7 |
| 20260505011920 | 75 | 220 | 0.0 | 2.6 | 0.00 | 0.01 | 0.01 | 76 | 1015.7 |
| 20260505011416 | 75 | 357 | 0.9 | 1.7 | 0.00 | 0.01 | 0.01 | 76 | 1015.8 |
| 20260505010913 | 75 | 236 | 1.7 | 1.7 | 0.00 | 0.01 | 0.01 | 76 | 1015.9 |
| 20260505010409 | 75 | 230 | 0.0 | 1.7 | 0.00 | 0.01 | 0.01 | 76 | 1015.8 |
| 20260505005905 | 75 | 234 | 0.0 | 0.9 | 0.00 | 0.01 | 0.01 | 75 | 1016.0 |
| 20260505005402 | 76 | 268 | 0.0 | 0.9 | 0.00 | 0.01 | 0.01 | 74 | 1015.7 |
| 20260505004859 | 76 | 247 | 0.0 | 1.7 | 0.00 | 0.01 | 0.01 | 74 | 1015.8 |
| 20260505004356 | 76 | 277 | 0.0 | 0.9 | 0.00 | 0.01 | 0.01 | 73 | 1015.8 |
| 20260505003853 | 76 | 267 | 0.0 | 0.9 | 0.00 | 0.01 | 0.01 | 72 | 1015.6 |
| 20260505003350 | 77 | 242 | 0.0 | 1.7 | 0.00 | 0.01 | 0.01 | 71 | 1015.7 |
| 20260505002846 | 77 | 235 | 0.0 | 0.9 | 0.00 | 0.01 | 0.01 | 71 | 1015.8 |
| 20260505002343 | 77 | 215 | 0.0 | 1.7 | 0.00 | 0.01 | 0.01 | 70 | 1015.8 |
| 20260505001842 | 77 | 264 | 0.0 | 1.7 | 0.00 | 0.01 | 0.01 | 71 | 1016.0 |
| 20260505001338 | 77 | 246 | 0.9 | 2.6 | 0.00 | 0.01 | 0.01 | 71 | 1016.0 |
| 20260505000835 | 77 | 252 | 0.0 | 0.9 | 0.00 | 0.01 | 0.01 | 71 | 1016.1 |
| 20260505000333 | 78 | 243 | 0.0 | 0.9 | 0.00 | 0.01 | 0.01 | 71 | 1016.0 |
| 20260504235830 | 78 | 275 | 1.7 | 1.7 | 0.00 | 0.01 | 0.01 | 70 | 1016.3 |
| 20260504235327 | 78 | 250 | 0.0 | 0.9 | 0.00 | 0.01 | 0.01 | 70 | 1016.0 |
| 20260504234823 | 78 | 235 | 0.0 | 0.9 | 0.00 | 0.01 | 0.01 | 70 | 1016.1 |
| 20260504234321 | 78 | 214 | 0.9 | 1.7 | 0.00 | 0.01 | 0.01 | 69 | 1016.1 |
| 20260504233817 | 78 | 231 | 0.9 | 0.9 | 0.00 | 0.01 | 0.01 | 69 | 1016.2 |
| 20260504233313 | 78 | 166 | 0.9 | 5.2 | 0.00 | 0.01 | 0.01 | 69 | 1016.2 |
| 20260504232810 | 79 | 270 | 0.9 | 2.6 | 0.00 | 0.01 | 0.01 | 68 | 1016.3 |
| 20260504232307 | 79 | 229 | 0.0 | 0.0 | 0.00 | 0.01 | 0.01 | 67 | 1016.3 |
| 20260504231804 | 79 | 285 | 0.0 | 2.6 | 0.00 | 0.01 | 0.01 | 67 | 1016.5 |
| 20260504231300 | 79 | 240 | 0.0 | 0.9 | 0.00 | 0.01 | 0.01 | 67 | 1016.5 |
| 20260504230756 | 79 | 226 | 1.7 | 1.7 | 0.00 | 0.01 | 0.01 | 66 | 1016.5 |
| 20260504230254 | 80 | 233 | 0.9 | 1.7 | 0.00 | 0.01 | 0.01 | 66 | 1016.8 |
| 20260504225753 | 80 | 221 | 1.7 | 1.7 | 0.00 | 0.01 | 0.01 | 65 | 1016.5 |
| 20260504225249 | 80 | 217 | 0.9 | 2.6 | 0.00 | 0.01 | 0.01 | 65 | 1016.5 |
| 20260504224746 | 80 | 143 | 2.6 | 6.1 | 0.00 | 0.01 | 0.01 | 64 | 1016.6 |
| 20260504224243 | 80 | 234 | 1.7 | 1.7 | 0.00 | 0.01 | 0.01 | 63 | 1016.6 |
| 20260504223740 | 81 | 192 | 0.9 | 1.7 | 0.00 | 0.01 | 0.01 | 63 | 1016.8 |
| 20260504223235 | 81 | 229 | 0.9 | 1.7 | 0.00 | 0.01 | 0.01 | 62 | 1017.0 |
| 20260504222733 | 81 | 295 | 0.9 | 0.9 | 0.00 | 0.01 | 0.01 | 60 | 1016.9 |
| 20260504222229 | 81 | 51 | 0.9 | 2.6 | 0.00 | 0.01 | 0.01 | 61 | 1017.0 |
| 20260504221727 | 81 | 261 | 0.0 | 0.9 | 0.00 | 0.01 | 0.01 | 60 | 1017.1 |
| 20260504221224 | 81 | 277 | 0.9 | 0.9 | 0.00 | 0.01 | 0.01 | 60 | 1017.0 |
| 20260504220720 | 81 | 332 | 0.0 | 0.9 | 0.00 | 0.01 | 0.01 | 59 | 1016.9 |
| 20260504220218 | 82 | 227 | 0.9 | 0.9 | 0.00 | 0.01 | 0.01 | 59 | 1017.1 |
| 20260504215714 | 82 | 284 | 1.7 | 1.7 | 0.00 | 0.01 | 0.01 | 59 | 1017.3 |
| 20260504215212 | 82 | 198 | 0.9 | 1.7 | 0.00 | 0.01 | 0.01 | 58 | 1017.1 |
| 20260504214707 | 82 | 276 | 0.9 | 1.7 | 0.00 | 0.01 | 0.01 | 59 | 1017.3 |
| 20260504214204 | 83 | 249 | 1.7 | 2.6 | 0.00 | 0.01 | 0.01 | 58 | 1017.2 |
| 20260504213701 | 83 | 92 | 0.9 | 1.7 | 0.00 | 0.01 | 0.01 | 57 | 1017.2 |
| 20260504213157 | 83 | 133 | 0.9 | 1.7 | 0.00 | 0.01 | 0.01 | 57 | 1017.2 |
| 20260504212654 | 83 | 262 | 0.9 | 0.9 | 0.00 | 0.01 | 0.01 | 58 | 1017.3 |
| 20260504212150 | 84 | 209 | 0.9 | 1.7 | 0.00 | 0.01 | 0.01 | 56 | 1017.4 |
| 20260504211648 | 85 | 356 | 1.7 | 2.6 | 0.00 | 0.01 | 0.01 | 55 | 1017.4 |
| 20260504211144 | 86 | 276 | 0.9 | 1.7 | 0.00 | 0.01 | 0.01 | 54 | 1017.4 |
| 20260504210642 | 84 | 0 | 0.0 | 0.9 | 0.00 | 0.01 | 0.01 | 54 | 1017.5 |
| 20260504210138 | 85 | 243 | 0.9 | 1.7 | 0.00 | 0.01 | 0.01 | 55 | 1017.8 |
| 20260504205636 | 85 | 70 | 0.9 | 1.7 | 0.00 | 0.01 | 0.01 | 53 | 1017.5 |
| 20260504205133 | 83 | 304 | 0.9 | 0.9 | 0.00 | 0.01 | 0.01 | 57 | 1017.9 |
| 20260504204632 | 84 | 273 | 0.9 | 1.7 | 0.00 | 0.01 | 0.01 | 55 | 1018.0 |
| 20260504204130 | 84 | 271 | 0.9 | 0.9 | 0.00 | 0.01 | 0.01 | 56 | 1018.0 |
| 20260504203628 | 84 | 243 | 0.0 | 1.7 | 0.00 | 0.01 | 0.01 | 58 | 1018.0 |
| 20260504203125 | 84 | 255 | 0.9 | 0.9 | 0.00 | 0.01 | 0.01 | 54 | 1018.1 |
| 20260504202620 | 84 | 284 | 0.0 | 2.6 | 0.00 | 0.01 | 0.01 | 56 | 1018.1 |
| 20260504202117 | 84 | 260 | 0.9 | 2.6 | 0.00 | 0.01 | 0.01 | 56 | 1018.4 |
| 20260504201614 | 84 | 225 | 0.9 | 0.9 | 0.00 | 0.01 | 0.01 | 54 | 1018.3 |
| 20260504201112 | 85 | 187 | 0.0 | 1.7 | 0.00 | 0.01 | 0.01 | 53 | 1018.5 |
| 20260504200609 | 84 | 262 | 0.0 | 0.9 | 0.00 | 0.01 | 0.01 | 54 | 1018.5 |
| 20260504200105 | 84 | 272 | 0.9 | 0.9 | 0.00 | 0.01 | 0.01 | 53 | 1018.5 |
| 20260504195601 | 85 | 225 | 0.9 | 1.7 | 0.00 | 0.01 | 0.01 | 53 | 1018.7 |
| 20260504195057 | 84 | 303 | 0.9 | 0.9 | 0.00 | 0.01 | 0.01 | 53 | 1018.7 |
| 20260504194554 | 83 | 266 | 0.9 | 1.7 | 0.00 | 0.01 | 0.01 | 56 | 1018.8 |
| 20260504194050 | 82 | 113 | 1.7 | 2.6 | 0.00 | 0.01 | 0.01 | 56 | 1018.8 |
| 20260504193546 | 82 | 122 | 1.7 | 2.6 | 0.00 | 0.01 | 0.01 | 55 | 1018.9 |
| 20260504193045 | 84 | 262 | 0.0 | 1.7 | 0.00 | 0.01 | 0.01 | 53 | 1018.8 |
| 20260504192543 | 84 | 12 | 0.9 | 1.7 | 0.00 | 0.01 | 0.01 | 53 | 1018.8 |
| 20260504192041 | 85 | 236 | 0.9 | 6.1 | 0.00 | 0.01 | 0.01 | 52 | 1019.0 |
| 20260504191538 | 86 | 15 | 1.7 | 1.7 | 0.00 | 0.01 | 0.01 | 50 | 1019.2 |
| 20260504191034 | 85 | 287 | 0.9 | 2.6 | 0.00 | 0.01 | 0.01 | 54 | 1019.1 |
| 20260504190531 | 85 | 263 | 1.7 | 1.7 | 0.00 | 0.01 | 0.01 | 52 | 1019.2 |
| 20260504190027 | 84 | 280 | 0.0 | 1.7 | 0.00 | 0.01 | 0.01 | 51 | 1019.1 |
| 20260504185524 | 86 | 247 | 0.9 | 1.7 | 0.00 | 0.01 | 0.01 | 53 | 1019.1 |
| 20260504185021 | 85 | 269 | 0.0 | 1.7 | 0.00 | 0.01 | 0.01 | 52 | 1019.2 |
| 20260504184516 | 85 | 222 | 0.0 | 0.9 | 0.00 | 0.01 | 0.01 | 52 | 1019.2 |
| 20260504184012 | 85 | 264 | 0.0 | 1.7 | 0.00 | 0.01 | 0.01 | 52 | 1019.2 |
| 20260504183509 | 84 | 319 | 0.0 | 0.9 | 0.00 | 0.01 | 0.01 | 53 | 1019.2 |
| 20260504183008 | 84 | 230 | 1.7 | 2.6 | 0.00 | 0.01 | 0.01 | 54 | 1019.2 |
| 20260504182504 | 85 | 290 | 1.7 | 5.2 | 0.00 | 0.01 | 0.01 | 51 | 1019.2 |
| 20260504182001 | 84 | 349 | 0.9 | 1.7 | 0.00 | 0.01 | 0.01 | 52 | 1019.0 |
| 20260504181458 | 84 | 315 | 0.0 | 0.9 | 0.00 | 0.01 | 0.01 | 54 | 1019.1 |
| 20260504180956 | 84 | 253 | 0.9 | 2.6 | 0.00 | 0.01 | 0.01 | 53 | 1019.6 |
| 20260504180455 | 84 | 183 | 1.7 | 2.6 | 0.00 | 0.01 | 0.01 | 52 | 1019.4 |
| 20260504175953 | 83 | 271 | 0.9 | 1.7 | 0.00 | 0.01 | 0.01 | 53 | 1019.4 |
| 20260504175450 | 85 | 268 | 1.7 | 1.7 | 0.00 | 0.01 | 0.01 | 52 | 1019.3 |
| 20260504174947 | 84 | 235 | 0.9 | 1.7 | 0.00 | 0.01 | 0.01 | 52 | 1019.6 |
| 20260504174445 | 84 | 241 | 0.9 | 1.7 | 0.00 | 0.01 | 0.01 | 53 | 1019.3 |
| 20260504173942 | 82 | 235 | 1.7 | 2.6 | 0.00 | 0.01 | 0.01 | 57 | 1019.4 |
| 20260504173438 | 81 | 220 | 0.9 | 1.7 | 0.00 | 0.01 | 0.01 | 56 | 1019.5 |
| 20260504172936 | 80 | 245 | 0.9 | 2.6 | 0.00 | 0.01 | 0.01 | 57 | 1019.3 |
| 20260504172432 | 81 | 270 | 1.7 | 4.3 | 0.00 | 0.01 | 0.01 | 55 | 1019.5 |
| 20260504171928 | 82 | 250 | 0.0 | 0.9 | 0.00 | 0.01 | 0.01 | 55 | 1019.4 |
| 20260504171426 | 82 | 22 | 0.9 | 0.9 | 0.00 | 0.01 | 0.01 | 55 | 1019.5 |
| 20260504170923 | 83 | 221 | 0.0 | 1.7 | 0.00 | 0.01 | 0.01 | 56 | 1019.6 |
| 20260504170419 | 83 | 333 | 0.9 | 1.7 | 0.00 | 0.01 | 0.01 | 53 | 1019.8 |
| 20260504160338 | 80 | 258 | 0.9 | 1.7 | 0.00 | 0.01 | 0.01 | 58 | 1020.1 |
| 20260504150802 | 78 | 207 | 0.9 | 0.9 | 0.00 | 0.01 | 0.01 | 62 | 1019.6 |
| 20260504150259 | 76 | 263 | 0.0 | 1.7 | 0.00 | 0.01 | 0.01 | 63 | 1019.7 |
| 20260504141229 | 71 | 223 | 0.9 | 1.7 | 0.00 | 0.01 | 0.01 | 68 | 1019.1 |
| 20260504140726 | 70 | 309 | 0.0 | 1.7 | 0.00 | 0.01 | 0.01 | 70 | 1018.8 |
| 20260504140221 | 69 | 236 | 0.9 | 0.9 | 0.00 | 0.01 | 0.01 | 70 | 1018.8 |
| 20260504130650 | 63 | 252 | 0.0 | 0.9 | 0.00 | 0.01 | 0.01 | 82 | 1018.8 |
| 20260504130146 | 62 | 264 | 0.0 | 0.0 | 0.00 | 0.01 | 0.01 | 87 | 1018.7 |
| 20260504120110 | 57 | 246 | 0.0 | 0.0 | 0.00 | 0.01 | 0.01 | 95 | 1018.4 |
| 20260504110537 | 57 | 245 | 0.0 | 0.0 | 0.00 | 0.01 | 0.01 | 93 | 1018.3 |
| 20260504100448 | 57 | 245 | 0.0 | 0.0 | 0.00 | 0.01 | 0.01 | 91 | 1018.6 |
| 20260504081841 | 59 | 245 | 0.0 | 0.0 | 0.00 | 0.00 | 0.00 | 87 | 1019.7 |
| 20260504081338 | 59 | 245 | 0.0 | 0.0 | 0.00 | 0.00 | 0.00 | 87 | 1019.7 |
| 20260504080834 | 59 | 245 | 0.0 | 0.0 | 0.00 | 0.00 | 0.00 | 86 | 1019.9 |
| 20260504080331 | 59 | 245 | 0.0 | 0.0 | 0.00 | 0.00 | 0.00 | 85 | 1019.9 |
| 20260504070258 | 60 | 246 | 0.0 | 0.0 | 0.00 | 0.00 | 0.00 | 83 | 1021.1 |
| 20260504060219 | 61 | 246 | 0.0 | 0.0 | 0.00 | 0.00 | 0.00 | 80 | 1021.8 |
| 20260504050646 | 61 | 246 | 0.0 | 0.0 | 0.00 | 0.00 | 0.00 | 78 | 1022.2 |
| 20260504050143 | 61 | 246 | 0.0 | 0.0 | 0.00 | 0.00 | 0.00 | 78 | 1022.4 |
| 20260504045641 | 61 | 246 | 0.0 | 0.0 | 0.00 | 0.05 | 0.05 | 77 | 1022.3 |
| 20260504045141 | 62 | 246 | 0.0 | 0.0 | 0.00 | 0.05 | 0.05 | 75 | 1022.4 |
| 20260504044639 | 62 | 246 | 0.0 | 0.0 | 0.00 | 0.05 | 0.05 | 74 | 1022.6 |
| 20260504044135 | 62 | 246 | 0.0 | 0.0 | 0.00 | 0.05 | 0.05 | 74 | 1022.5 |
| 20260504043632 | 62 | 246 | 0.0 | 0.0 | 0.00 | 0.05 | 0.05 | 74 | 1022.4 |